IRIDIUM 33 DEB

Satellite information

Favourite Embed

Satellite Type and Status

DEBRISIN ORBIT

Key statistics

Satellite IRIDIUM 33 DEB at a glance.

Uptime

10218

Days in orbit

Revolutions

≈ 14.0

Per day

Orbit

LEO

Low Earth Orbit

Inclination

86.0

Latest

Satellite identification and parameters

Extended collection of information and parameters for IRIDIUM 33 DEB.

Object identification

Identified? True

Debris? True

Object name: IRIDIUM 33 DEB

International designator: 1997-051W

Object number (NORAD): 33853

Object ID (CCSDS): 33853

Country: UNITED STATES OF AMERICA (US)

Current information (Y/N): Y

RCS size: SMALL

Orbital parameters

Period: 102.984 minutes

Inclination: 85.9997 deg

SMA: 7277.914 km

Apoapsis: 1055.017 km

Periapsis: 744.542 km

RAAN: 34.1904 deg

Eccentricy: 0.02132988

Argument of periapsis: 186.294 deg

Mean anomaly: 207.5368 deg

Mean motion: 13.98274187 rev/day

Mean motion (dot): 0.00006468 rev/day2

B* drag term: 0.0037244401 1/REarth

Two-line elements (TLE)

Creation date: Sept. 2, 2025, 11:42 p.m.

Reference frame: TEME

Reference center: EARTH

Epoch: Sept. 2, 2025, 9:38 a.m. UTC

TLE line 0: 0 IRIDIUM 33 DEB

TLE line 1: 1 33853U 97051W 25245.40157073 .00006468 00000-0 37244-2 0 9995

TLE line 2: 2 33853 85.9997 34.1904 0213299 186.2940 207.5368 13.98274187839290

Live tracking on map

Real-time ground track for satellite IRIDIUM 33 DEB.

In-orbit conjunctions

A list of the most updated potential collisions computed for object IRIDIUM 33 DEB.

Target Orbit TCA Probability of collision Miss distance Type
DMSP 5D-2 F12 DEB SSO 2025-06-22 16:54:57 0.00106711 48.0 (m) DEBRIS
COSMOS 990 LEO 2025-04-10 22:51:34 0.0001060139 152.0 (m) PAYLOAD
PORCUPINE 1 LEO 2024-11-25 05:00:14 0.0001059108 646.0 (m) PAYLOAD
COSMOS 1275 DEB LEO 2024-11-14 02:28:57 0.0001572974 688.0 (m) DEBRIS

Associated space launch

Iridium provides global mobile telecommunications services using a constellation of 66 low earth orbit satellites in a 86.4° inclined orbit. Although 77 satellites were originally envisioned for the system and spawned the name based on the 77th element in the periodic table, the system has been scaled back. Motorola's Satellite Communications Group designed and manufactured the Iridium satellites with Lockheed Martin providing the LM-700A spacecraft buses.

IRIDIUM 33 DEB was lifted into orbit during the mission ‘Proton-K/17S40 | Iridium 27 to 33’, on board a Proton-K/17S40 space rocket.

The launch took place on Sept. 14, 1997, 1:36 a.m. from 81/23 (81L).

For more information about the launch, click the button.

Launch to space Proton-K/17S40 | Iridium 27 to 33
Proton-K/17S40 | Iridium 27 to 33

Agency: N/A

Status: Launch Successful

Launch date: Sept. 14, 1997, 1:36 a.m. UTC

Rocket: Proton-K/17S40

Launch pad: 81/23 (81L)

Location: Baikonur Cosmodrome, Republic of Kazakhstan

...

Latest news about this satellite

There are no fresh news available about this satellite. Check back as we update our databases every day.


Newsletter sign-up

Weekly statistics, charts and insights to help you stay on top of the space industry.